Santee, CA

6:58 PM PDT on May 25, 2017 (GMT -0700)
Gillespie

Weather History for KSEE - January, 2013

Change the Weather History Date:

Thursday, January 3, 2013

  Actual Average Record
Temperature  
Mean Temperature 52 °F -  
Max Temperature 71 °F 70 °F 87 °F (2003)
Min Temperature 32 °F 39 °F 28 °F (1983)
Degree Days  
Heating Degree Days 14    
Growing Degree Days 2 (Base 50)    
Moisture  
Dew Point 24 °F    
Average Humidity 74    
Maximum Humidity 100    
Minimum Humidity 4    
Precipitation  
Precipitation 0.00 in - - ()
Sea Level Pressure  
Sea Level Pressure 30.13 in    
Wind  
Wind Speed 1 mph (WNW)    
Max Wind Speed 6 mph    
Max Gust Speed -    
Visibility 10 miles    
Events      
Averages and records for this station are not official NWS values.
T = Trace of Precipitation, MM = Missing Value Source: NWS Daily Summary

Daily Weather History Graph

Daily Weather History Graph

Search for Another Location

Airport or City:

Trip Planner

Search our weather history database for the weather conditions in past years. The results will help you decide how hot, cold, wet, or windy it might be!

Date:

Astronomy

Jan. 03, 2013 Rise Set
Actual Time 6:50 AM PST 4:54 PM PST
Civil Twilight 6:23 AM PST 5:21 PM PST
Nautical Twilight 5:53 AM PST 5:52 PM PST
Astronomical Twilight 5:23 AM PST 6:22 PM PST
Moon 11:11 PM PST (1/3) 10:26 AM PST (1/3)
Length of Visible Light 10h 57m
Length of Day
10h 03m
Waning Gibbous, 64% of the Moon is Illuminated
Jan 3
Waning Gibbous
Jan 4
Last Quarter
Jan 11
New
Jan 18
First Quarter
Jan 26
Full

Hourly Weather History & Observations

Time (PST) Temp. Windchill Dew Point Humidity Pressure Visibility Wind Dir Wind Speed Gust Speed Precip Events Conditions
12:15 AM 35.6 °F - 32.0 °F 87% 30.09 in 10.0 mi Calm Calm - N/A   Clear
12:35 AM 35.6 °F 32.8 °F 32.0 °F 87% 30.09 in 10.0 mi WNW 3.5 mph - N/A   Clear
12:55 AM 35.6 °F 32.8 °F 32.0 °F 87% 30.09 in 10.0 mi NW 3.5 mph - N/A   Clear
1:15 AM 35.6 °F 32.8 °F 32.0 °F 87% 30.10 in 10.0 mi NW 3.5 mph - N/A   Clear
1:35 AM 33.8 °F - 32.0 °F 93% 30.09 in 10.0 mi Calm Calm - N/A   Clear
1:55 AM 33.8 °F - 32.0 °F 93% 30.09 in 10.0 mi Calm Calm - N/A   Clear
2:15 AM 33.8 °F - 32.0 °F 93% 30.09 in 10.0 mi Calm Calm - N/A   Clear
2:35 AM 33.8 °F - 32.0 °F 93% 30.09 in 10.0 mi Calm Calm - N/A   Clear
2:55 AM 32.0 °F - 32.0 °F 100% 30.08 in 10.0 mi Calm Calm - N/A   Clear
3:15 AM 33.8 °F - 32.0 °F 93% 30.08 in 10.0 mi Calm Calm - N/A   Clear
3:35 AM 33.8 °F - 32.0 °F 93% 30.08 in 10.0 mi Calm Calm - N/A   Clear
3:55 AM 32.0 °F 28.7 °F 32.0 °F 100% 30.08 in 10.0 mi WNW 3.5 mph - N/A   Clear
4:15 AM 32.0 °F - 32.0 °F 100% 30.07 in 10.0 mi Calm Calm - N/A   Clear
4:35 AM 32.0 °F - 32.0 °F 100% 30.08 in 10.0 mi Calm Calm - N/A   Clear
5:15 AM 32.0 °F 28.7 °F 32.0 °F 100% 30.08 in 10.0 mi West 3.5 mph - N/A   Clear
10:47 AM 57.2 °F - 30.2 °F 36% 30.14 in 20.0 mi Calm Calm - N/A   Clear
2:47 PM 71.6 °F - - 4% 30.07 in 25.0 mi West 5.8 mph - N/A   Clear
5:47 PM 53.6 °F - 32.0 °F 44% 30.11 in 12.0 mi WNW 5.8 mph - N/A   Clear
8:15 PM 46.4 °F - 30.2 °F 53% 30.17 in 10.0 mi Calm Calm - N/A   Clear
8:35 PM 44.6 °F - 28.4 °F 53% 30.17 in 10.0 mi Calm Calm - N/A   Clear
8:55 PM 44.6 °F - 30.2 °F 57% 30.17 in 10.0 mi Calm Calm - N/A   Clear
9:15 PM 42.8 °F 41.1 °F 28.4 °F 57% 30.18 in 10.0 mi West 3.5 mph - N/A   Clear
9:35 PM 42.8 °F - 28.4 °F 57% 30.18 in 10.0 mi Calm Calm - N/A   Clear
9:55 PM 41.0 °F 39.0 °F 26.6 °F 57% 30.19 in 10.0 mi West 3.5 mph - N/A   Clear
10:15 PM 39.2 °F - 28.4 °F 65% 30.20 in 10.0 mi Calm Calm - N/A   Clear
10:35 PM 39.2 °F - 26.6 °F 61% 30.20 in 10.0 mi Calm Calm - N/A   Clear
10:55 PM 39.2 °F 37.0 °F 26.6 °F 61% 30.21 in 10.0 mi West 3.5 mph - N/A   Clear
11:15 PM 37.4 °F 34.9 °F 26.6 °F 65% 30.21 in 10.0 mi WNW 3.5 mph - N/A   Clear
11:35 PM 37.4 °F - 26.6 °F 65% 30.21 in 10.0 mi Calm Calm - N/A   Clear
11:55 PM 35.6 °F - 26.6 °F 70% 30.21 in 10.0 mi Calm Calm - N/A   Clear